Regional Weather Roundup
Issued by NWS

Home | Current Version | Previous Version | Text Only | Print | Product List | Glossary Off
Versions: 1 2 3 4 5 6 7 8 9 10 11 12 13 14 15 16 17 18 19 20 21 22 23 24 25 26 27 28 29 30 31 32 33 34 35 36 37 38 39 40 41 42 43 44 45 46 47 48 49 50

000
ASUS43 KOAX 051110
RWRNE

WEATHER ROUNDUP FOR NEBRASKA
NATIONAL WEATHER SERVICE OMAHA NE
600 AM CDT TUE MAY 05 2015

NOTES: SATELLITE DATA IS BEING USED TO AUGMENT CLOUD COVER ABOVE
       12000 FEET.
       "FAIR" INDICATES FEW OR NO CLOUDS BELOW 12,000 FEET WITH NO
       SIGNIFICANT WEATHER AND/OR OBSTRUCTIONS TO VISIBILITY.

  * THESE STATIONS DO NOT REPORT WEATHER SUCH AS RAIN...SNOW OR FOG.

NEZ001>004-019>022-054>056-051200-
NEBRASKA PANHANDLE

CITY           SKY/WX    TMP DP  RH WIND       PRES   REMARKS
SCOTTSBLUFF    CLOUDY    47  44  90 SE8       30.03F
ALLIANCE       CLOUDY    47  44  90 E5        30.02F
CHADRON        PTCLDY    41  38  89 CALM      30.02F
KIMBALL        FOG       44  44  99 SE7       30.02F VSB 3/4
SIDNEY         FOG       45  44  97 S5        30.04F VSB 3/4
$$

NEZ057>060-069>072-079>082-051200-
SOUTHWEST NEBRASKA

CITY           SKY/WX    TMP DP  RH WIND       PRES   REMARKS
NORTH PLATTE   CLOUDY    51  51 100 E5        30.03F FOG
IMPERIAL       FOG       50  49  96 N3        30.03F VSB 1/2
LEXINGTON      FOG       55  54  97 NE3       30.02F VSB 1
MCCOOK         FOG       53  52  96 N6        30.01F VSB 1/4
OGALLALA       CLOUDY    49  49  99 CALM      30.04F FOG
$$

NEZ005>010-023>029-035>040-094-051200-
NORTH CENTRAL NEBRASKA

CITY           SKY/WX    TMP DP  RH WIND       PRES   REMARKS
VALENTINE      CLOUDY    50  41  71 E7        30.05F
AINSWORTH      CLOUDY    53  47  79 E8        30.06F
BROKEN BOW     FOG       54  53  97 NE6       30.03F VSB 1/2
O`NEILL        CLOUDY    53  52  96 E8        30.07F FOG
ORD            FOG       54  53  97 NE6       30.04F VSB 1/2
THEDFORD       CLOUDY    53  51  94 E5        30.05S FOG
$$

NEZ041-046>049-061>064-073>077-083>087-051200-
SOUTH CENTRAL NEBRASKA

CITY           SKY/WX    TMP DP  RH WIND       PRES   REMARKS
GRAND ISLAND   FOG       55  55 100 NE6       30.04S VSB 1/4
AURORA         FOG       56  56 100 NE6       30.03S VSB 1/4
HASTINGS       FOG       57  57 100 CALM      30.01F VSB 1/4
HEBRON         CLOUDY    60  56  88 S6        30.02F
HOLDREGE       FOG       55  54  97 CALM      30.00F VSB 1/4
KEARNEY *      CLOUDY    55  54  94 NE6       30.02F VSB 1/4
YORK           FOG       57  57 100 N5        30.03F VSB<1/4
$$

NEZ011>018-030>034-042>045-051200-
NORTHEAST NEBRASKA

CITY           SKY/WX    TMP DP  RH WIND       PRES   REMARKS
NORFOLK        CLOUDY    55  54  96 E3        30.06R FOG
ALBION         FOG       54  52  94 NE8       30.06S VSB 1
BLAIR          CLOUDY    57  55  95 CALM      30.06R FOG
COLUMBUS *     CLOUDY    55  50  82 NE7       30.06S VSB 1
FREMONT        CLOUDY    58  56  95 CALM      30.06R FOG
TEKAMAH        CLOUDY    57  56  96 N9        30.05S FOG
WAYNE          RAIN      55  53  94 NE3       30.07S
$$

NEZ050>053-065>068-078-088>093-051200-
SOUTHEAST NEBRASKA

CITY           SKY/WX    TMP DP  RH WIND       PRES   REMARKS
LINCOLN        CLOUDY    60  59  96 E5        30.05R FOG
OMAHA EPPLEY   CLOUDY    59  58  96 SE9       30.06R FOG
BEATRICE       CLOUDY    59  58  97 SE5       30.04R
FALLS CITY     MOCLDY    58  56  93 SE3       30.05S
NEBRASKA CITY  CLOUDY    59  59 100 S5        30.06S
PLATTSMOUTH    CLOUDY    59  57  94 CALM      30.07R FOG
$$

NEZ044-045-051>053-067-051200-
OMAHA AREA

CITY           SKY/WX    TMP DP  RH WIND       PRES   REMARKS
OMAHA EPPLEY   CLOUDY    59  58  96 SE9       30.06R FOG
BLAIR          CLOUDY    57  55  95 CALM      30.06R FOG
FREMONT        CLOUDY    58  56  95 CALM      30.06R FOG
MILLARD        CLOUDY    60  59  96 CALM      30.06R FOG
OFFUTT AFB     CLOUDY    60  59  96 E3        30.06R
PLATTSMOUTH    CLOUDY    59  57  94 CALM      30.07R FOG
$$


USA.gov is the U.S. government's official web portal to all federal, state and local government web resources and services.